Regional Weather Roundup
Issued by NWS Raleigh/Durham, NC

Home | Current Version | Previous Version | Text Only | Print | Product List | Glossary On
Versions: 1 2 3 4 5 6 7 8 9 10 11 12 13 14 15 16 17 18 19 20 21 22 23 24 25 26 27 28 29 30 31 32 33 34 35 36 37 38 39 40 41 42 43 44 45 46 47 48 49 50
000
ASUS42 KRAH 250410
RWRRAH
NORTH CAROLINA WEATHER ROUNDUP
NATIONAL WEATHER SERVICE RALEIGH NC
1100 PM EST SAT FEB 24 2018

NOTE: "FAIR" INDICATES FEW OR NO CLOUDS BELOW 12,000 FEET WITH NO
SIGNIFICANT WEATHER AND/OR OBSTRUCTIONS TO VISIBILITY.

NCZ001-053-055-056-065-067-250500-
WESTERN NORTH CAROLINA

CITY           SKY/WX    TMP DP  RH WIND       PRES   REMARKS
ASHEVILLE      CLOUDY    66  56  70 S7        30.07F
JEFFERSON      CLOUDY    59  53  78 S7        30.09R
MORGANTON      CLOUDY    71  57  60 S9        30.08S
HICKORY        CLOUDY    69  58  67 S13       30.05R
RUTHERFORDTON  CLOUDY    67  57  69 E3        30.06S
MOUNT AIRY     MOCLDY    67  58  72 CALM      30.07R
BOONE          FAIR      62  51  68 CALM      30.11R
$$

NCZ021-022-025-041-071-084-088-250500-
CENTRAL NORTH CAROLINA

CITY           SKY/WX    TMP DP  RH WIND       PRES   REMARKS
CHARLOTTE      FAIR      70  58  65 S12       30.06S
GREENSBORO     CLOUDY    68  59  73 S12       30.04S
WINSTON-SALEM  FAIR      69  58  67 S9        30.06R
RALEIGH-DURHAM MOCLDY    68  59  73 S9        30.07S
FORT BRAGG     FAIR      68  62  79 S7        30.08F
FAYETTEVILLE   FAIR      68  62  81 S10       30.10S
BURLINGTON     FAIR      71  59  65 S8        30.05S
LAURINBURG     FAIR      67  60  78 S9        30.11S
$$

NCZ011-015-027-028-043-044-047-080-103-250500-
NORTHEASTERN NORTH CAROLINA

CITY           SKY/WX    TMP DP  RH WIND       PRES   REMARKS
ROCKY MT-WILSO FAIR      67  60  78 S7        30.08F
GREENVILLE     FAIR      68  61  77 SW8       30.12S
WASHINGTON     FAIR      66  62  86 S6        30.12S
ELIZABETH CITY FAIR      65  63  93 S12       30.09F
MANTEO         FAIR      62  60  95 S12       30.12S
CAPE HATTERAS  FAIR      64  63  96 SW10      30.15S
$$

NCZ078-087-090-091-093-098-101-250500-
SOUTHEASTERN NORTH CAROLINA

CITY           SKY/WX    TMP DP  RH WIND       PRES   REMARKS
LUMBERTON      FAIR      67  61  81 S10       30.11S
GOLDSBORO      FAIR      67  62  84 S8        30.09S
KINSTON        FAIR      67  62  83 S9        30.12S
KENANSVILLE    FAIR      66  63  88 SW3       30.13S
NEW BERN       FAIR      65  63  93 SW9       30.14S
CHERRY POINT   NOT AVBL
BEAUFORT       FAIR      64  62  93 SW9       30.15S
JACKSONVILLE   FAIR      66  64  93 SW7       30.14S
WILMINGTON     FAIR      67  64  90 S8        30.15R
$$




USA.gov is the U.S. government's official web portal to all federal, state and local government web resources and services.